owner,sensor,date,latitude,longitude,vertical_datum,wind_speed,wind_to_direction,wind_speed_of_gust,qcFlag 
COMPS,ioos:station:USF.COMPS:NFB:1,2012-05-01T00:00:00Z,25.0840,-81.0960,6.0,9.8,90.0,,'1111122,1111122,1111122' 
COMPS,ioos:station:USF.COMPS:NFB:1,2012-05-01T01:00:00Z,25.0840,-81.0960,6.0,8.7,100.0,,'1111122,1111122,1111122' 
COMPS,ioos:station:USF.COMPS:NFB:1,2012-05-01T02:00:00Z,25.0840,-81.0960,6.0,8.7,100.0,,'1111122,1111122,1111122' 
COMPS,ioos:station:USF.COMPS:NFB:1,2012-05-01T03:00:00Z,25.0840,-81.0960,6.0,10.8,110.0,,'1111122,1111122,1111122' 
COMPS,ioos:station:USF.COMPS:NFB:1,2012-05-01T04:00:00Z,25.0840,-81.0960,6.0,11.3,110.0,,'1111122,1111122,1111122' 
COMPS,ioos:station:USF.COMPS:NFB:1,2012-05-01T05:00:00Z,25.0840,-81.0960,6.0,9.8,100.0,,'1111122,1111122,1111122' 
COMPS,ioos:station:USF.COMPS:NFB:1,2012-05-01T06:00:00Z,25.0840,-81.0960,6.0,9.8,100.0,,'1111122,1111122,1111122' 
COMPS,ioos:station:USF.COMPS:NFB:1,2012-05-01T08:00:00Z,25.0840,-81.0960,6.0,8.2,100.0,,'1111122,1111122,1111122' 
COMPS,ioos:station:USF.COMPS:NFB:1,2012-05-01T09:00:00Z,25.0840,-81.0960,6.0,8.2,100.0,,'1111122,1111122,1111122' 
COMPS,ioos:station:USF.COMPS:NFB:1,2012-05-01T10:00:00Z,25.0840,-81.0960,6.0,6.2,110.0,,'1111122,1111122,1111122' 
COMPS,ioos:station:USF.COMPS:NFB:1,2012-05-01T11:00:00Z,25.0840,-81.0960,6.0,8.7,100.0,,'1111122,1111122,1111122' 
COMPS,ioos:station:USF.COMPS:NFB:1,2012-05-01T12:00:00Z,25.0840,-81.0960,6.0,8.2,100.0,,'1111122,1111122,1111122' 
COMPS,ioos:station:USF.COMPS:NFB:1,2012-05-01T13:00:00Z,25.0840,-81.0960,6.0,7.7,120.0,,'1111122,1111122,1111122' 
COMPS,ioos:station:USF.COMPS:NFB:1,2012-05-01T14:00:00Z,25.0840,-81.0960,6.0,6.7,100.0,,'1111122,1111122,1111122' 
COMPS,ioos:station:USF.COMPS:NFB:1,2012-05-01T15:00:00Z,25.0840,-81.0960,6.0,7.7,100.0,,'1111122,1111122,1111122' 
COMPS,ioos:station:USF.COMPS:NFB:1,2012-05-01T16:00:00Z,25.0840,-81.0960,6.0,8.2,110.0,,'1111122,1111122,1111122' 
COMPS,ioos:station:USF.COMPS:NFB:1,2012-05-01T17:00:00Z,25.0840,-81.0960,6.0,8.7,120.0,,'1111122,1111122,1111122' 
COMPS,ioos:station:USF.COMPS:NFB:1,2012-05-01T18:00:00Z,25.0840,-81.0960,6.0,7.7,100.0,,'1111122,1111122,1111122' 
COMPS,ioos:station:USF.COMPS:NFB:1,2012-05-01T19:00:00Z,25.0840,-81.0960,6.0,9.8,120.0,,'1111122,1111122,1111122' 
COMPS,ioos:station:USF.COMPS:NFB:1,2012-05-01T20:00:00Z,25.0840,-81.0960,6.0,11.3,150.0,,'1111122,1111122,1111122' 
COMPS,ioos:station:USF.COMPS:NFB:1,2012-05-01T21:00:00Z,25.0840,-81.0960,6.0,7.2,90.0,,'1111122,1111122,1111122' 
COMPS,ioos:station:USF.COMPS:NFB:1,2012-05-01T22:00:00Z,25.0840,-81.0960,6.0,9.8,110.0,,'1111122,1111122,1111122' 
COMPS,ioos:station:USF.COMPS:NFB:1,2012-05-02T00:00:00Z,25.0840,-81.0960,6.0,10.3,100.0,,'1111122,1111122,1111122' 
COMPS,ioos:station:USF.COMPS:NFB:1,2012-05-02T01:00:00Z,25.0840,-81.0960,6.0,9.3,110.0,,'1111122,1111122,1111122' 
COMPS,ioos:station:USF.COMPS:NFB:1,2012-05-02T02:00:00Z,25.0840,-81.0960,6.0,9.3,100.0,,'1111122,1111122,1111122' 
COMPS,ioos:station:USF.COMPS:NFB:1,2012-05-02T03:00:00Z,25.0840,-81.0960,6.0,8.7,100.0,,'1111122,1111122,1111122' 
COMPS,ioos:station:USF.COMPS:NFB:1,2012-05-02T04:00:00Z,25.0840,-81.0960,6.0,8.2,110.0,,'1111122,1111122,1111122' 
COMPS,ioos:station:USF.COMPS:NFB:1,2012-05-02T05:00:00Z,25.0840,-81.0960,6.0,8.2,110.0,,'1111122,1111122,1111122' 
COMPS,ioos:station:USF.COMPS:NFB:1,2012-05-02T06:00:00Z,25.0840,-81.0960,6.0,8.2,110.0,,'1111122,1111122,1111122' 
COMPS,ioos:station:USF.COMPS:NFB:1,2012-05-02T07:00:00Z,25.0840,-81.0960,6.0,8.7,110.0,,'1111122,1111122,1111122' 
COMPS,ioos:station:USF.COMPS:NFB:1,2012-05-02T08:00:00Z,25.0840,-81.0960,6.0,8.2,110.0,,'1111122,1111122,1111122' 
COMPS,ioos:station:USF.COMPS:NFB:1,2012-05-02T09:00:00Z,25.0840,-81.0960,6.0,7.2,110.0,,'1111122,1111122,1111122' 
COMPS,ioos:station:USF.COMPS:NFB:1,2012-05-02T10:00:00Z,25.0840,-81.0960,6.0,8.2,110.0,,'1111122,1111122,1111122' 
COMPS,ioos:station:USF.COMPS:NFB:1,2012-05-02T11:00:00Z,25.0840,-81.0960,6.0,6.2,120.0,,'1111122,1111122,1111122' 
COMPS,ioos:station:USF.COMPS:NFB:1,2012-05-02T12:00:00Z,25.0840,-81.0960,6.0,5.7,120.0,,'1111122,1111122,1111122' 
COMPS,ioos:station:USF.COMPS:NFB:1,2012-05-02T13:00:00Z,25.0840,-81.0960,6.0,6.2,110.0,,'1111122,1111122,1111122' 
COMPS,ioos:station:USF.COMPS:NFB:1,2012-05-02T14:00:00Z,25.0840,-81.0960,6.0,6.2,110.0,,'1111122,1111122,1111122' 
COMPS,ioos:station:USF.COMPS:NFB:1,2012-05-02T15:00:00Z,25.0840,-81.0960,6.0,8.7,110.0,,'1111122,1111122,1111122' 
COMPS,ioos:station:USF.COMPS:NFB:1,2012-05-02T16:00:00Z,25.0840,-81.0960,6.0,8.2,120.0,,'1111122,1111122,1111122' 
COMPS,ioos:station:USF.COMPS:NFB:1,2012-05-02T17:00:00Z,25.0840,-81.0960,6.0,8.7,110.0,,'1111122,1111122,1111122' 
COMPS,ioos:station:USF.COMPS:NFB:1,2012-05-02T18:00:00Z,25.0840,-81.0960,6.0,8.2,120.0,,'1111122,1111122,1111122' 
COMPS,ioos:station:USF.COMPS:NFB:1,2012-05-02T19:00:00Z,25.0840,-81.0960,6.0,9.3,120.0,,'1111122,1111122,1111122' 
COMPS,ioos:station:USF.COMPS:NFB:1,2012-05-02T20:00:00Z,25.0840,-81.0960,6.0,8.2,120.0,,'1111122,1111122,1111122' 
COMPS,ioos:station:USF.COMPS:NFB:1,2012-05-02T21:00:00Z,25.0840,-81.0960,6.0,8.7,110.0,,'1111122,1111122,1111122' 
COMPS,ioos:station:USF.COMPS:NFB:1,2012-05-02T22:00:00Z,25.0840,-81.0960,6.0,9.8,100.0,,'1111122,1111122,1111122' 
COMPS,ioos:station:USF.COMPS:NFB:1,2012-05-03T00:00:00Z,25.0840,-81.0960,6.0,10.8,110.0,,'1111122,1111122,1111122' 
COMPS,ioos:station:USF.COMPS:NFB:1,2012-05-03T01:00:00Z,25.0840,-81.0960,6.0,9.8,100.0,,'1111122,1111122,1111122' 
COMPS,ioos:station:USF.COMPS:NFB:1,2012-05-03T02:00:00Z,25.0840,-81.0960,6.0,10.3,110.0,,'1111122,1111122,1111122' 
COMPS,ioos:station:USF.COMPS:NFB:1,2012-05-03T03:00:00Z,25.0840,-81.0960,6.0,8.7,120.0,,'1111122,1111122,1111122' 
COMPS,ioos:station:USF.COMPS:NFB:1,2012-05-03T04:00:00Z,25.0840,-81.0960,6.0,9.8,130.0,,'1111122,1111122,1111122' 
COMPS,ioos:station:USF.COMPS:NFB:1,2012-05-03T05:00:00Z,25.0840,-81.0960,6.0,9.3,120.0,,'1111122,1111122,1111122' 
COMPS,ioos:station:USF.COMPS:NFB:1,2012-05-03T06:00:00Z,25.0840,-81.0960,6.0,9.3,120.0,,'1111122,1111122,1111122' 
COMPS,ioos:station:USF.COMPS:NFB:1,2012-05-03T07:00:00Z,25.0840,-81.0960,6.0,8.7,130.0,,'1111122,1111122,1111122' 
COMPS,ioos:station:USF.COMPS:NFB:1,2012-05-03T08:00:00Z,25.0840,-81.0960,6.0,8.2,120.0,,'1111122,1111122,1111122' 
COMPS,ioos:station:USF.COMPS:NFB:1,2012-05-03T09:00:00Z,25.0840,-81.0960,6.0,7.7,110.0,,'1111122,1111122,1111122' 
COMPS,ioos:station:USF.COMPS:NFB:1,2012-05-03T10:00:00Z,25.0840,-81.0960,6.0,8.7,120.0,,'1111122,1111122,1111122' 
COMPS,ioos:station:USF.COMPS:NFB:1,2012-05-03T11:00:00Z,25.0840,-81.0960,6.0,8.2,120.0,,'1111122,1111122,1111122' 
COMPS,ioos:station:USF.COMPS:NFB:1,2012-05-03T12:00:00Z,25.0840,-81.0960,6.0,7.2,130.0,,'1111122,1111122,1111122' 
COMPS,ioos:station:USF.COMPS:NFB:1,2012-05-03T13:00:00Z,25.0840,-81.0960,6.0,7.7,120.0,,'1111122,1111122,1111122' 
COMPS,ioos:station:USF.COMPS:NFB:1,2012-05-03T14:00:00Z,25.0840,-81.0960,6.0,8.2,110.0,,'1111122,1111122,1111122' 
COMPS,ioos:station:USF.COMPS:NFB:1,2012-05-03T15:00:00Z,25.0840,-81.0960,6.0,7.2,130.0,,'1111122,1111122,1111122' 
COMPS,ioos:station:USF.COMPS:NFB:1,2012-05-03T16:00:00Z,25.0840,-81.0960,6.0,6.7,120.0,,'1111122,1111122,1111122' 
COMPS,ioos:station:USF.COMPS:NFB:1,2012-05-03T17:00:00Z,25.0840,-81.0960,6.0,6.7,120.0,,'1111122,1111122,1111122' 
COMPS,ioos:station:USF.COMPS:NFB:1,2012-05-03T18:00:00Z,25.0840,-81.0960,6.0,6.7,110.0,,'1111122,1111122,1111122' 
COMPS,ioos:station:USF.COMPS:NFB:1,2012-05-03T19:00:00Z,25.0840,-81.0960,6.0,6.7,120.0,,'1111122,1111122,1111122' 
COMPS,ioos:station:USF.COMPS:NFB:1,2012-05-03T20:00:00Z,25.0840,-81.0960,6.0,6.7,120.0,,'1111122,1111122,1111122' 
COMPS,ioos:station:USF.COMPS:NFB:1,2012-05-03T21:00:00Z,25.0840,-81.0960,6.0,7.7,120.0,,'1111122,1111122,1111122' 
COMPS,ioos:station:USF.COMPS:NFB:1,2012-05-03T22:00:00Z,25.0840,-81.0960,6.0,8.2,120.0,,'1111122,1111122,1111122' 
COMPS,ioos:station:USF.COMPS:NFB:1,2012-05-03T23:00:00Z,25.0840,-81.0960,6.0,9.3,110.0,,'1111122,1111122,1111122' 
COMPS,ioos:station:USF.COMPS:NFB:1,2012-05-04T00:00:00Z,25.0840,-81.0960,6.0,9.3,120.0,,'1111122,1111122,1111122' 
COMPS,ioos:station:USF.COMPS:NFB:1,2012-05-04T01:00:00Z,25.0840,-81.0960,6.0,8.7,110.0,,'1111122,1111122,1111122' 
COMPS,ioos:station:USF.COMPS:NFB:1,2012-05-04T02:00:00Z,25.0840,-81.0960,6.0,8.7,110.0,,'1111122,1111122,1111122' 
COMPS,ioos:station:USF.COMPS:NFB:1,2012-05-04T03:00:00Z,25.0840,-81.0960,6.0,8.7,100.0,,'1111122,1111122,1111122' 
COMPS,ioos:station:USF.COMPS:NFB:1,2012-05-04T04:00:00Z,25.0840,-81.0960,6.0,9.3,100.0,,'1111122,1111122,1111122' 
COMPS,ioos:station:USF.COMPS:NFB:1,2012-05-04T05:00:00Z,25.0840,-81.0960,6.0,8.2,100.0,,'1111122,1111122,1111122' 
COMPS,ioos:station:USF.COMPS:NFB:1,2012-05-04T06:00:00Z,25.0840,-81.0960,6.0,8.2,110.0,,'1111122,1111122,1111122' 
COMPS,ioos:station:USF.COMPS:NFB:1,2012-05-04T07:00:00Z,25.0840,-81.0960,6.0,9.3,110.0,,'1111122,1111122,1111122' 
COMPS,ioos:station:USF.COMPS:NFB:1,2012-05-04T08:00:00Z,25.0840,-81.0960,6.0,8.2,110.0,,'1111122,1111122,1111122' 
COMPS,ioos:station:USF.COMPS:NFB:1,2012-05-04T09:00:00Z,25.0840,-81.0960,6.0,7.2,130.0,,'1111122,1111122,1111122' 
COMPS,ioos:station:USF.COMPS:NFB:1,2012-05-04T10:00:00Z,25.0840,-81.0960,6.0,7.7,130.0,,'1111122,1111122,1111122' 
COMPS,ioos:station:USF.COMPS:NFB:1,2012-05-04T11:00:00Z,25.0840,-81.0960,6.0,6.7,140.0,,'1111122,1111122,1111122' 
COMPS,ioos:station:USF.COMPS:NFB:1,2012-05-04T12:00:00Z,25.0840,-81.0960,6.0,5.1,130.0,,'1111122,1111122,1111122' 
COMPS,ioos:station:USF.COMPS:NFB:1,2012-05-04T13:00:00Z,25.0840,-81.0960,6.0,6.2,120.0,,'1111122,1111122,1111122' 
COMPS,ioos:station:USF.COMPS:NFB:1,2012-05-04T14:00:00Z,25.0840,-81.0960,6.0,4.6,120.0,,'1111122,1111122,1111122' 
COMPS,ioos:station:USF.COMPS:NFB:1,2012-05-04T15:00:00Z,25.0840,-81.0960,6.0,6.2,120.0,,'1111122,1111122,1111122' 
COMPS,ioos:station:USF.COMPS:NFB:1,2012-05-04T16:00:00Z,25.0840,-81.0960,6.0,6.2,120.0,,'1111122,1111122,1111122' 
COMPS,ioos:station:USF.COMPS:NFB:1,2012-05-04T17:00:00Z,25.0840,-81.0960,6.0,6.7,120.0,,'1111122,1111122,1111122' 
COMPS,ioos:station:USF.COMPS:NFB:1,2012-05-04T18:00:00Z,25.0840,-81.0960,6.0,6.2,130.0,,'1111122,1111122,1111122' 
COMPS,ioos:station:USF.COMPS:NFB:1,2012-05-04T19:00:00Z,25.0840,-81.0960,6.0,6.2,140.0,,'1111122,1111122,1111122' 
COMPS,ioos:station:USF.COMPS:NFB:1,2012-05-04T20:00:00Z,25.0840,-81.0960,6.0,5.7,130.0,,'1111122,1111122,1111122' 
COMPS,ioos:station:USF.COMPS:NFB:1,2012-05-04T21:00:00Z,25.0840,-81.0960,6.0,5.7,140.0,,'1111122,1111122,1111122' 
COMPS,ioos:station:USF.COMPS:NFB:1,2012-05-04T22:00:00Z,25.0840,-81.0960,6.0,7.2,130.0,,'1111122,1111122,1111122' 
COMPS,ioos:station:USF.COMPS:NFB:1,2012-05-04T23:00:00Z,25.0840,-81.0960,6.0,8.2,120.0,,'1111122,1111122,1111122' 
COMPS,ioos:station:USF.COMPS:NFB:1,2012-05-05T00:00:00Z,25.0840,-81.0960,6.0,7.7,110.0,,'1111122,1111122,1111122' 
COMPS,ioos:station:USF.COMPS:NFB:1,2012-05-05T01:00:00Z,25.0840,-81.0960,6.0,7.7,110.0,,'1111122,1111122,1111122' 
COMPS,ioos:station:USF.COMPS:NFB:1,2012-05-05T02:00:00Z,25.0840,-81.0960,6.0,6.7,110.0,,'1111122,1111122,1111122' 
COMPS,ioos:station:USF.COMPS:NFB:1,2012-05-05T03:00:00Z,25.0840,-81.0960,6.0,7.2,120.0,,'1111122,1111122,1111122' 
COMPS,ioos:station:USF.COMPS:NFB:1,2012-05-05T04:00:00Z,25.0840,-81.0960,6.0,6.7,120.0,,'1111122,1111122,1111122' 
COMPS,ioos:station:USF.COMPS:NFB:1,2012-05-05T05:00:00Z,25.0840,-81.0960,6.0,5.7,130.0,,'1111122,1111122,1111122' 
COMPS,ioos:station:USF.COMPS:NFB:1,2012-05-05T06:00:00Z,25.0840,-81.0960,6.0,5.1,130.0,,'1111122,1111122,1111122' 
COMPS,ioos:station:USF.COMPS:NFB:1,2012-05-05T07:00:00Z,25.0840,-81.0960,6.0,5.7,130.0,,'1111122,1111122,1111122' 
COMPS,ioos:station:USF.COMPS:NFB:1,2012-05-05T08:00:00Z,25.0840,-81.0960,6.0,6.2,120.0,,'1111122,1111122,1111122' 
COMPS,ioos:station:USF.COMPS:NFB:1,2012-05-05T09:00:00Z,25.0840,-81.0960,6.0,7.2,130.0,,'1111122,1111122,1111122' 
COMPS,ioos:station:USF.COMPS:NFB:1,2012-05-05T10:00:00Z,25.0840,-81.0960,6.0,7.7,140.0,,'1111122,1111122,1111122' 
COMPS,ioos:station:USF.COMPS:NFB:1,2012-05-05T11:00:00Z,25.0840,-81.0960,6.0,6.7,140.0,,'1111122,1111122,1111122' 
COMPS,ioos:station:USF.COMPS:NFB:1,2012-05-05T12:00:00Z,25.0840,-81.0960,6.0,5.7,130.0,,'1111122,1111122,1111122' 
COMPS,ioos:station:USF.COMPS:NFB:1,2012-05-05T13:00:00Z,25.0840,-81.0960,6.0,4.6,130.0,,'1111122,1111122,1111122' 
COMPS,ioos:station:USF.COMPS:NFB:1,2012-05-05T14:00:00Z,25.0840,-81.0960,6.0,3.6,130.0,,'1111122,1111122,1111122' 
COMPS,ioos:station:USF.COMPS:NFB:1,2012-05-05T15:00:00Z,25.0840,-81.0960,6.0,4.1,130.0,,'1111122,1111122,1111122' 
COMPS,ioos:station:USF.COMPS:NFB:1,2012-05-05T16:00:00Z,25.0840,-81.0960,6.0,3.6,140.0,,'1111122,1111122,1111122' 
COMPS,ioos:station:USF.COMPS:NFB:1,2012-05-05T17:00:00Z,25.0840,-81.0960,6.0,3.6,140.0,,'1111122,1111122,1111122' 
COMPS,ioos:station:USF.COMPS:NFB:1,2012-05-05T18:00:00Z,25.0840,-81.0960,6.0,3.1,150.0,,'1111122,1111122,1111122' 
COMPS,ioos:station:USF.COMPS:NFB:1,2012-05-05T19:00:00Z,25.0840,-81.0960,6.0,3.1,150.0,,'1111122,1111122,1111122' 
COMPS,ioos:station:USF.COMPS:NFB:1,2012-05-05T20:00:00Z,25.0840,-81.0960,6.0,4.1,150.0,,'1111122,1111122,1111122' 
COMPS,ioos:station:USF.COMPS:NFB:1,2012-05-05T21:00:00Z,25.0840,-81.0960,6.0,4.1,140.0,,'1111122,1111122,1111122' 
COMPS,ioos:station:USF.COMPS:NFB:1,2012-05-05T22:00:00Z,25.0840,-81.0960,6.0,4.6,140.0,,'1111122,1111122,1111122' 
COMPS,ioos:station:USF.COMPS:NFB:1,2012-05-05T23:00:00Z,25.0840,-81.0960,6.0,6.2,140.0,,'1111122,1111122,1111122' 
COMPS,ioos:station:USF.COMPS:NFB:1,2012-05-06T00:00:00Z,25.0840,-81.0960,6.0,6.7,150.0,,'1111122,1111122,1111122' 
COMPS,ioos:station:USF.COMPS:NFB:1,2012-05-06T01:00:00Z,25.0840,-81.0960,6.0,7.2,140.0,,'1111122,1111122,1111122' 
COMPS,ioos:station:USF.COMPS:NFB:1,2012-05-06T02:00:00Z,25.0840,-81.0960,6.0,7.2,140.0,,'1111122,1111122,1111122' 
COMPS,ioos:station:USF.COMPS:NFB:1,2012-05-06T04:00:00Z,25.0840,-81.0960,6.0,7.2,150.0,,'1111122,1111122,1111122' 
COMPS,ioos:station:USF.COMPS:NFB:1,2012-05-06T05:00:00Z,25.0840,-81.0960,6.0,7.2,150.0,,'1111122,1111122,1111122' 
COMPS,ioos:station:USF.COMPS:NFB:1,2012-05-06T06:00:00Z,25.0840,-81.0960,6.0,6.7,150.0,,'1111122,1111122,1111122' 
COMPS,ioos:station:USF.COMPS:NFB:1,2012-05-06T07:00:00Z,25.0840,-81.0960,6.0,5.7,160.0,,'1111122,1111122,1111122' 
COMPS,ioos:station:USF.COMPS:NFB:1,2012-05-06T08:00:00Z,25.0840,-81.0960,6.0,6.2,160.0,,'1111122,1111122,1111122' 
COMPS,ioos:station:USF.COMPS:NFB:1,2012-05-06T09:00:00Z,25.0840,-81.0960,6.0,5.1,150.0,,'1111122,1111122,1111122' 
COMPS,ioos:station:USF.COMPS:NFB:1,2012-05-06T10:00:00Z,25.0840,-81.0960,6.0,5.7,160.0,,'1111122,1111122,1111122' 
COMPS,ioos:station:USF.COMPS:NFB:1,2012-05-06T11:00:00Z,25.0840,-81.0960,6.0,5.7,150.0,,'1111122,1111122,1111122' 
COMPS,ioos:station:USF.COMPS:NFB:1,2012-05-06T12:00:00Z,25.0840,-81.0960,6.0,3.6,170.0,,'1111122,1111122,1111122' 
COMPS,ioos:station:USF.COMPS:NFB:1,2012-05-06T13:00:00Z,25.0840,-81.0960,6.0,4.1,170.0,,'1111122,1111122,1111122' 
COMPS,ioos:station:USF.COMPS:NFB:1,2012-05-06T14:00:00Z,25.0840,-81.0960,6.0,4.1,150.0,,'1111122,1111122,1111122' 
COMPS,ioos:station:USF.COMPS:NFB:1,2012-05-06T15:00:00Z,25.0840,-81.0960,6.0,4.6,150.0,,'1111122,1111122,1111122' 
COMPS,ioos:station:USF.COMPS:NFB:1,2012-05-06T16:00:00Z,25.0840,-81.0960,6.0,3.6,160.0,,'1111122,1111122,1111122' 
COMPS,ioos:station:USF.COMPS:NFB:1,2012-05-06T17:00:00Z,25.0840,-81.0960,6.0,3.6,150.0,,'1111122,1111122,1111122' 
COMPS,ioos:station:USF.COMPS:NFB:1,2012-05-06T18:00:00Z,25.0840,-81.0960,6.0,3.6,170.0,,'1111122,1111122,1111122' 
COMPS,ioos:station:USF.COMPS:NFB:1,2012-05-06T19:00:00Z,25.0840,-81.0960,6.0,3.1,180.0,,'1111122,1111122,1111122' 
COMPS,ioos:station:USF.COMPS:NFB:1,2012-05-06T20:00:00Z,25.0840,-81.0960,6.0,3.1,190.0,,'1111122,1111122,1111122' 
COMPS,ioos:station:USF.COMPS:NFB:1,2012-05-06T21:00:00Z,25.0840,-81.0960,6.0,3.6,170.0,,'1111122,1111122,1111122' 
COMPS,ioos:station:USF.COMPS:NFB:1,2012-05-06T22:00:00Z,25.0840,-81.0960,6.0,4.6,180.0,,'1111122,1111122,1111122' 
COMPS,ioos:station:USF.COMPS:NFB:1,2012-05-06T23:00:00Z,25.0840,-81.0960,6.0,4.6,170.0,,'1111122,1111122,1111122' 
COMPS,ioos:station:USF.COMPS:NFB:1,2012-05-07T00:00:00Z,25.0840,-81.0960,6.0,3.1,170.0,,'1111122,1111122,1111122' 
COMPS,ioos:station:USF.COMPS:NFB:1,2012-05-07T01:00:00Z,25.0840,-81.0960,6.0,3.1,160.0,,'1111122,1111122,1111122' 
COMPS,ioos:station:USF.COMPS:NFB:1,2012-05-07T02:00:00Z,25.0840,-81.0960,6.0,2.1,170.0,,'1111122,1111122,1111122' 
COMPS,ioos:station:USF.COMPS:NFB:1,2012-05-07T03:00:00Z,25.0840,-81.0960,6.0,2.6,180.0,,'1111122,1111122,1111122' 
COMPS,ioos:station:USF.COMPS:NFB:1,2012-05-07T04:00:00Z,25.0840,-81.0960,6.0,2.6,140.0,,'1111122,1111122,1111122' 
COMPS,ioos:station:USF.COMPS:NFB:1,2012-05-07T05:00:00Z,25.0840,-81.0960,6.0,3.6,150.0,,'1111122,1111122,1111122' 
COMPS,ioos:station:USF.COMPS:NFB:1,2012-05-07T06:00:00Z,25.0840,-81.0960,6.0,3.6,180.0,,'1111122,1111122,1111122' 
COMPS,ioos:station:USF.COMPS:NFB:1,2012-05-07T07:00:00Z,25.0840,-81.0960,6.0,3.1,180.0,,'1111122,1111122,1111122' 
COMPS,ioos:station:USF.COMPS:NFB:1,2012-05-07T08:00:00Z,25.0840,-81.0960,6.0,3.1,180.0,,'1111122,1111122,1111122' 
COMPS,ioos:station:USF.COMPS:NFB:1,2012-05-07T09:00:00Z,25.0840,-81.0960,6.0,3.1,170.0,,'1111122,1111122,1111122' 
COMPS,ioos:station:USF.COMPS:NFB:1,2012-05-07T10:00:00Z,25.0840,-81.0960,6.0,4.6,170.0,,'1111122,1111122,1111122' 
COMPS,ioos:station:USF.COMPS:NFB:1,2012-05-07T11:00:00Z,25.0840,-81.0960,6.0,4.1,170.0,,'1111122,1111122,1111122' 
COMPS,ioos:station:USF.COMPS:NFB:1,2012-05-07T12:00:00Z,25.0840,-81.0960,6.0,4.1,150.0,,'1111122,1111122,1111122' 
COMPS,ioos:station:USF.COMPS:NFB:1,2012-05-07T13:00:00Z,25.0840,-81.0960,6.0,4.1,170.0,,'1111122,1111122,1111122' 
COMPS,ioos:station:USF.COMPS:NFB:1,2012-05-07T14:00:00Z,25.0840,-81.0960,6.0,4.6,180.0,,'1111122,1111122,1111122' 
COMPS,ioos:station:USF.COMPS:NFB:1,2012-05-07T15:00:00Z,25.0840,-81.0960,6.0,4.6,180.0,,'1111122,1111122,1111122' 
COMPS,ioos:station:USF.COMPS:NFB:1,2012-05-07T16:00:00Z,25.0840,-81.0960,6.0,4.6,180.0,,'1111122,1111122,1111122' 
COMPS,ioos:station:USF.COMPS:NFB:1,2012-05-07T17:00:00Z,25.0840,-81.0960,6.0,4.6,180.0,,'1111122,1111122,1111122' 
COMPS,ioos:station:USF.COMPS:NFB:1,2012-05-07T18:00:00Z,25.0840,-81.0960,6.0,4.1,190.0,,'1111122,1111122,1111122' 
COMPS,ioos:station:USF.COMPS:NFB:1,2012-05-07T19:00:00Z,25.0840,-81.0960,6.0,3.6,180.0,,'1111122,1111122,1111122' 
COMPS,ioos:station:USF.COMPS:NFB:1,2012-05-07T20:00:00Z,25.0840,-81.0960,6.0,4.1,190.0,,'1111122,1111122,1111122' 
COMPS,ioos:station:USF.COMPS:NFB:1,2012-05-07T21:00:00Z,25.0840,-81.0960,6.0,3.6,190.0,,'1111122,1111122,1111122' 
COMPS,ioos:station:USF.COMPS:NFB:1,2012-05-08T02:00:00Z,25.0840,-81.0960,6.0,2.6,180.0,,'1111122,1111122,1111122' 
COMPS,ioos:station:USF.COMPS:NFB:1,2012-05-08T03:00:00Z,25.0840,-81.0960,6.0,2.6,170.0,,'1111122,1111122,1111122' 
COMPS,ioos:station:USF.COMPS:NFB:1,2012-05-08T04:00:00Z,25.0840,-81.0960,6.0,2.6,150.0,,'1111122,1111122,1111122' 
COMPS,ioos:station:USF.COMPS:NFB:1,2012-05-08T05:00:00Z,25.0840,-81.0960,6.0,3.6,150.0,,'1111122,1111122,1111122' 
COMPS,ioos:station:USF.COMPS:NFB:1,2012-05-08T06:00:00Z,25.0840,-81.0960,6.0,3.6,160.0,,'1111122,1111122,1111122' 
COMPS,ioos:station:USF.COMPS:NFB:1,2012-05-08T07:00:00Z,25.0840,-81.0960,6.0,4.1,180.0,,'1111122,1111122,1111122' 
COMPS,ioos:station:USF.COMPS:NFB:1,2012-05-08T08:00:00Z,25.0840,-81.0960,6.0,5.7,190.0,,'1111122,1111122,1111122' 
COMPS,ioos:station:USF.COMPS:NFB:1,2012-05-08T09:00:00Z,25.0840,-81.0960,6.0,4.6,190.0,,'1111122,1111122,1111122' 
COMPS,ioos:station:USF.COMPS:NFB:1,2012-05-08T10:00:00Z,25.0840,-81.0960,6.0,4.1,180.0,,'1111122,1111122,1111122' 
COMPS,ioos:station:USF.COMPS:NFB:1,2012-05-08T11:00:00Z,25.0840,-81.0960,6.0,4.6,180.0,,'1111122,1111122,1111122' 
COMPS,ioos:station:USF.COMPS:NFB:1,2012-05-08T12:00:00Z,25.0840,-81.0960,6.0,4.1,180.0,,'1111122,1111122,1111122' 
COMPS,ioos:station:USF.COMPS:NFB:1,2012-05-08T13:00:00Z,25.0840,-81.0960,6.0,4.6,180.0,,'1111122,1111122,1111122' 
COMPS,ioos:station:USF.COMPS:NFB:1,2012-05-08T14:00:00Z,25.0840,-81.0960,6.0,4.6,180.0,,'1111122,1111122,1111122' 
COMPS,ioos:station:USF.COMPS:NFB:1,2012-05-08T15:00:00Z,25.0840,-81.0960,6.0,4.6,180.0,,'1111122,1111122,1111122' 
COMPS,ioos:station:USF.COMPS:NFB:1,2012-05-08T16:00:00Z,25.0840,-81.0960,6.0,4.6,180.0,,'1111122,1111122,1111122' 
COMPS,ioos:station:USF.COMPS:NFB:1,2012-05-08T22:00:00Z,25.0840,-81.0960,6.0,4.1,220.0,,'1111122,1111122,1111122' 
COMPS,ioos:station:USF.COMPS:NFB:1,2012-05-09T08:00:00Z,25.0840,-81.0960,6.0,5.1,180.0,,'1111122,1111122,1111122' 
COMPS,ioos:station:USF.COMPS:NFB:1,2012-05-09T09:00:00Z,25.0840,-81.0960,6.0,4.1,190.0,,'1111122,1111122,1111122' 
COMPS,ioos:station:USF.COMPS:NFB:1,2012-05-09T15:00:00Z,25.0840,-81.0960,6.0,2.1,220.0,,'1111122,1111122,1111122' 
COMPS,ioos:station:USF.COMPS:NFB:1,2012-05-09T16:00:00Z,25.0840,-81.0960,6.0,2.6,230.0,,'1111122,1111122,1111122' 
COMPS,ioos:station:USF.COMPS:NFB:1,2012-05-09T17:00:00Z,25.0840,-81.0960,6.0,3.1,190.0,,'1111122,1111122,1111122' 
COMPS,ioos:station:USF.COMPS:NFB:1,2012-05-09T18:00:00Z,25.0840,-81.0960,6.0,3.1,210.0,,'1111122,1111122,1111122' 
COMPS,ioos:station:USF.COMPS:NFB:1,2012-05-09T19:00:00Z,25.0840,-81.0960,6.0,3.1,200.0,,'1111122,1111122,1111122' 
COMPS,ioos:station:USF.COMPS:NFB:1,2012-05-09T20:00:00Z,25.0840,-81.0960,6.0,4.1,210.0,,'1111122,1111122,1111122' 
COMPS,ioos:station:USF.COMPS:NFB:1,2012-05-09T21:00:00Z,25.0840,-81.0960,6.0,3.1,230.0,,'1111122,1111122,1111122' 
COMPS,ioos:station:USF.COMPS:NFB:1,2012-05-09T22:00:00Z,25.0840,-81.0960,6.0,2.6,280.0,,'1111122,1111122,1111122' 
COMPS,ioos:station:USF.COMPS:NFB:1,2012-05-09T23:00:00Z,25.0840,-81.0960,6.0,2.6,300.0,,'1111122,1111122,1111122' 
COMPS,ioos:station:USF.COMPS:NFB:1,2012-05-10T00:00:00Z,25.0840,-81.0960,6.0,4.6,290.0,,'1111122,1111122,1111122' 
COMPS,ioos:station:USF.COMPS:NFB:1,2012-05-10T01:00:00Z,25.0840,-81.0960,6.0,4.6,290.0,,'1111122,1111122,1111122' 
COMPS,ioos:station:USF.COMPS:NFB:1,2012-05-10T02:00:00Z,25.0840,-81.0960,6.0,3.6,270.0,,'1111122,1111122,1111122' 
COMPS,ioos:station:USF.COMPS:NFB:1,2012-05-10T03:00:00Z,25.0840,-81.0960,6.0,3.6,290.0,,'1111122,1111122,1111122' 
COMPS,ioos:station:USF.COMPS:NFB:1,2012-05-10T04:00:00Z,25.0840,-81.0960,6.0,4.1,270.0,,'1111122,1111122,1111122' 
COMPS,ioos:station:USF.COMPS:NFB:1,2012-05-10T05:00:00Z,25.0840,-81.0960,6.0,9.8,290.0,,'1111122,1111122,1111122' 
COMPS,ioos:station:USF.COMPS:NFB:1,2012-05-10T06:00:00Z,25.0840,-81.0960,6.0,2.1,170.0,,'1111122,1111122,1111122' 
COMPS,ioos:station:USF.COMPS:NFB:1,2012-05-10T07:00:00Z,25.0840,-81.0960,6.0,1.0,170.0,,'1111122,1111122,1111122' 
COMPS,ioos:station:USF.COMPS:NFB:1,2012-05-10T08:00:00Z,25.0840,-81.0960,6.0,2.6,260.0,,'1111122,1111122,1111122' 
COMPS,ioos:station:USF.COMPS:NFB:1,2012-05-10T09:00:00Z,25.0840,-81.0960,6.0,2.6,210.0,,'1111122,1111122,1111122' 
COMPS,ioos:station:USF.COMPS:NFB:1,2012-05-10T10:00:00Z,25.0840,-81.0960,6.0,3.1,300.0,,'1111122,1111122,1111122' 
COMPS,ioos:station:USF.COMPS:NFB:1,2012-05-10T11:00:00Z,25.0840,-81.0960,6.0,4.1,280.0,,'1111122,1111122,1111122' 
COMPS,ioos:station:USF.COMPS:NFB:1,2012-05-10T12:00:00Z,25.0840,-81.0960,6.0,5.7,310.0,,'1111122,1111122,1111122' 
COMPS,ioos:station:USF.COMPS:NFB:1,2012-05-10T13:00:00Z,25.0840,-81.0960,6.0,5.1,300.0,,'1111122,1111122,1111122' 
COMPS,ioos:station:USF.COMPS:NFB:1,2012-05-10T14:00:00Z,25.0840,-81.0960,6.0,4.6,290.0,,'1111122,1111122,1111122' 
COMPS,ioos:station:USF.COMPS:NFB:1,2012-05-10T15:00:00Z,25.0840,-81.0960,6.0,4.6,290.0,,'1111122,1111122,1111122' 
COMPS,ioos:station:USF.COMPS:NFB:1,2012-05-10T16:00:00Z,25.0840,-81.0960,6.0,4.6,300.0,,'1111122,1111122,1111122' 
COMPS,ioos:station:USF.COMPS:NFB:1,2012-05-10T17:00:00Z,25.0840,-81.0960,6.0,5.1,290.0,,'1111122,1111122,1111122' 